Линкольн

США     40°47′21″N   96°41′36″W
В апреле 2022 года жителям России запретили посещать сайт meteo.paraplan.net по решению Генеральной прокуратуры. Аудитория сайта уменьшилась в 10 раз. Владельцы сайта не видят смысла в поддержке погодного сервера в таких условиях. Сайт будет закрыт в октябре.
темп.,
°C
ветер,
м/с
пор.,
м/с
влажн.,
%
обл.,
%
осадки,
мм/ч
давл.,
гПа
погр.,
м
29 сентября, чт
чт2901:00+10юв4134526 0.0 1028264
04:00+9ююв513510 0.0 1028259
07:00+8ююв4125750 0.0 1028241
10:00+15ю693516 0.0 1027512
13:00+23ю79275 0.0 10231049
16:00+26ююв79256 0.0 10191364
19:00+22ююв510320 0.0 1019271
22:00+18ююв615395 0.0 1019399
30 сентября, пт
пт3001:00+16ююв616385 0.0 1019419
04:00+15ююв61535100 0.0 1019378
07:00+14ююв61439100 0.0 1018353
10:00+19ююв81432100 0.0 1018548
13:00+27ю911235 0.0 10151169
16:00+29ю810227 0.0 10131447
19:00+25ююв611284 0.0 1013366
22:00+19ююв514350 0.0 1015286
1 октября, сб
сб101:00+18ююв515330 0.0 1015319
04:00+15ююв412355 0.0 1016233
07:00+13ююв410413 0.0 1017171
10:00+21ююв68245 0.0 1018421
13:00+28ююв67172 0.0 10171233
16:00+30ююв67160 0.0 10151579
19:00+24юв46210 0.0 101679
22:00+18юв411290 0.0 1018159
2 октября, вс
вс201:00+16юв513340 0.0 1020231
04:00+15юв412372 0.0 1021235
07:00+12ююв33436 0.0 102334
10:00+19юв462976 0.0 1024390
13:00+27юв561881 0.0 10221268
16:00+29юв67143 0.0 10201763
19:00+23юв48201 0.0 1020123
22:00+17юв41432100 0.0 1021240
3 октября, пн
пн301:00+17юв5153777 0.0 1021342
04:00+13ююв4114116 0.0 1021206
07:00+12ююв384651 0.0 1022122
10:00+20ююв592871 0.0 1022491
13:00+26ююв681982 0.0 10201405
16:00+28ююв661678 0.0 10172148
19:00+22ююв3323100 0.0 101831
22:00+19юв4829100 0.0 1019115